STARLINK-4744 (53788 NORAD) Tracking and Keplerian Element Data

This shows tracking and keplerian element data for the satellite.

Feedback or suggestion? Click here.




ElementValue
Catalog53788
NameSTARLINK-4744
Epoch Orbit130
Epoch Day307.91667824
Epoch Year2022
RAAN356.3692
Inclination53.2023
Eccentricity0.0012544
Argument of Perigee43.3643
Mean Anonmoly232.8909
Mean Motion15.894007
Decay Rate0.00230267
L11 53788U 22111R 22307.91667824 .00230267 30262-4 77981-3 0 9997
L22 53788 53.2023 356.3692 0012544 43.3643 232.8909 15.89400700 1302



Live tracking and technical data element details for STARLINK-4744 (NORAD 53788). STARLINK-4744 can be tracked NOW for your location showing map with azimuth and elevation plus other details from your city location.







IsCatalogInMostPopularTable: catalog: 53788, numindb: -1

Insert: records affected: 1


GetName: 53788 STARLINK-4744

Hit Count: inserted at: Thu, 08 Dec 2022 09:41:23 GMT